Regional Weather Roundup
Issued by NWS

Home | Current Version | Previous Version | Graphics & Text | Print | Product List | Glossary On
Versions: 1 2 3 4 5 6 7 8 9 10 11 12 13 14 15 16 17 18 19 20 21 22 23 24 25 26 27 28 29 30 31 32 33 34 35 36 37 38 39 40 41 42 43 44 45 46 47 48 49 50
000
ASUS43 KDMX 270801
RWRIA

WEATHER ROUNDUP FOR IOWA
NATIONAL WEATHER SERVICE DES MOINES IA
200 AM CST MON FEB 27 2017

NOTE: "FAIR" INDICATES FEW OR NO CLOUDS BELOW 12,000 FEET WITH NO
SIGNIFICANT WEATHER AND/OR OBSTRUCTIONS TO VISIBILITY.

* - THESE STATIONS ARE NOT NWS STATIONS...THUS NOT UNDER NWS
QUALITY CONTROL.  THEY ALSO DO NOT REPORT WEATHER SUCH
AS PRECIPITATION OR FOG.

IAZ001>003-012>014-020>022-031>034-043>046-270900-
   NORTHWEST IOWA

CITY           SKY/WX    TMP DP  RH WIND       PRES   REMARKS
CARROLL *      CLEAR     25  23  93 CALM      30.00S
CHEROKEE *       N/A     13  12  96 CALM      29.98S FOG
DENISON *      CLEAR     23  21  93 CALM      29.98S
LE MARS *      CLEAR     21  19  93 S5        29.97S WCI  15
SHELDON *      CLEAR     25  25 100 S8        29.93S WCI  16
SIOUX CITY     CLEAR     19  15  84 E9        29.96F WCI   8
SPENCER        CLEAR     20  15  81 S8        29.95F WCI  10
STORM LAKE *   CLEAR     19  18  93 S8        29.97S WCI   9
$$

IAZ055>058-069>071-079>083-090>094-270900-
   SOUTHWEST IOWA

CITY           SKY/WX    TMP DP  RH WIND       PRES   REMARKS
ATLANTIC *     CLEAR     23  23 100 N3        30.01S
AUDUBON *      CLEAR     19  16  86 CALM      30.00F
CLARINDA *     CLEAR     23  23 100 NE5       30.04S WCI  17
COUNCIL BLFS * CLEAR     28  23  80 SE9       29.98F WCI  20
CRESTON *      CLEAR     28  21  74 SE6       30.01F WCI  22
HARLAN  *      CLEAR     19  19 100 CALM      30.03S FOG
LAMONI         MOCLDY    32  24  72 S6        30.01S WCI  26
RED OAK *      CLEAR     23  21  93 CALM      30.01S
SHENANDOAH *   CLEAR     25  23  93 CALM      30.02R
$$

IAZ047>049-059>061-072>074-084-270900-
   CENTRAL IOWA

CITY           SKY/WX    TMP DP  RH WIND       PRES   REMARKS
AMES           CLEAR     23  23 100 CALM      30.03S FOG
ANKENY *       MOCLDY    25  23  93 CALM      30.04S
BOONE *        CLEAR     27  27 100 S5        30.01S WCI  21
CHARITON *     MOCLDY    32  25  74 SE6       30.02S WCI  26
DES MOINES     PTCLDY    32  22  66 CALM      30.03S
GRINNELL*      MOCLDY    27  24  87 E3        30.04F
MARSHALLTOWN   CLEAR     20  19  96 E6        30.02F WCI  12
NEWTON *       CLOUDY    27  23  86 E6        30.02F WCI  20
PELLA *        PTCLDY    30  23  73 E3        30.05S
PERRY *          N/A     26  24  94 CALM      30.02S
$$

IAZ004>006-015-016-023>025-035-036-270900-
   NORTH CENTRAL IOWA

CITY           SKY/WX    TMP DP  RH WIND       PRES   REMARKS
ALGONA *       CLEAR     14  14 100 S13       29.97S WCI   0
CLARION *      CLEAR     18  18 100 S9        30.02R WCI   6
ESTHERVILLE    CLEAR     21  17  84 S9        29.95S WCI  11
FORT DODGE *   CLEAR     19  16  86 S5        30.01S WCI  13
MASON CITY     CLEAR     13  10  88 S5        30.01R WCI   5
FOREST CITY *  FOG        5   3  92 CALM      29.99S VSB<1/4
WEBSTER CITY * CLEAR     19  18  93 S8        30.00S WCI   9
IOWA FALLS *     N/A     25  23  91 SE5       30.03S WCI  19
$$

IAZ007>011-017>019-026>030-037>042-050>054-066-270900-
   NORTHEAST IOWA

CITY           SKY/WX    TMP DP  RH WIND       PRES   REMARKS
CEDAR RAPIDS   PTCLDY    23  22  96 SE5       30.05R WCI  17
CHARLES CITY * CLEAR     19  19 100 S8        30.03R WCI   9
CLINTON *      MOCLDY    30  27  88 CALM      30.08R
DECORAH *      CLEAR     23  21  93 S5        30.02R WCI  17
DUBUQUE        PTCLDY    24  22  91 CALM      30.05R
MONTICELLO *   MOCLDY    25  23  93 CALM      30.06R
OELWEIN *      CLEAR     25  25 100 S5        30.04S WCI  19
WATERLOO       CLEAR     25  22  88 CALM      30.04S
$$

IAZ064-065-067-068-078-270900-
   EAST CENTRAL IOWA

CITY           SKY/WX    TMP DP  RH WIND       PRES   REMARKS
DAVENPORT      PTCLDY    30  24  78 S3        30.08R
IOWA CITY      PTCLDY    31  26  82 CALM      30.08S
MUSCATINE *    PTCLDY    27  25  93 CALM      30.09R
QUAD CITIES    CLEAR     29  26  89 CALM      30.07R
$$

IAZ062-063-075>077-085>089-095>099-270900-
   SOUTHEAST IOWA

CITY           SKY/WX    TMP DP  RH WIND       PRES   REMARKS
BURLINGTON     CLEAR     31  29  92 S3        30.08R
FAIRFIELD *    PTCLDY    32  27  80 S8        30.05S WCI  25
KEOKUK *       CLEAR     34  32  93 S6        30.07S WCI  29
CENTERVILLE *    N/A     30  30 100 CALM      30.04F
OTTUMWA        CLOUDY    30  22  72 S5        30.04S WCI  25
WASHINGTON *   MOCLDY    28  25  86 SE5       30.07F WCI  23
$$

ABBREVIATIONS USED IN REMARKS
   TC - TEMPERATURES IN CELSIUS
  WCI - WIND CHILL INDEX
   HX - HEAT INDEX
  VSB - VISIBILITY
$$





USA.gov is the U.S. government's official web portal to all federal, state and local government web resources and services.